Weather Roundup
Issued by NWS

Home | Current Version | Previous Version | Graphics & Text | Print | Product List | Glossary Off
Versions: 1 2 3 4 5 6 7 8 9 10 11 12 13 14 15 16 17 18 19 20 21 22 23 24 25 26 27 28 29 30 31 32 33 34 35 36 37 38 39 40 41 42 43 44 45 46 47 48 49 50

000
NZUS93 KARX 271510
HRRWXR

CURRENT HOURLY OBSERVATIONS ACROSS
MUCH OF THE UPPER MISSISSIPPI VALLEY
NATIONAL WEATHER SERVICE LA CROSSE WI
1000 AM CDT FRI MAY 27 2016


...SOUTHEAST MINNESOTA...


CITY           SKY/WX    TMP DP  RH WIND       PRES   REMARKS
ROCHESTER      CLOUDY    64  61  90 NE6       29.84S
ROCHESTER/MAYO CLOUDY    64  60  87 CALM      29.84S
WINONA         CLOUDY    68  64  88 CALM      29.82S
AUSTIN         CLOUDY    63  59  88 CALM      29.82S
ALBERT LEA     RAIN      63  61  94 SE8       29.83R
DODGE CENTER   CLOUDY    64  57  77 SE5       29.84R
PRESTON        PTSUNNY   64  60  87 NE5       29.84S
OWATONNA       RAIN      63  59  88 SE8       29.84R
FARIBAULT      CLOUDY    64  61  88 E15       29.83R
$$

...ELSEWHERE IN MINNESOTA...


CITY           SKY/WX    TMP DP  RH WIND       PRES   REMARKS
MINNEAPOLIS    LGT RAIN  66  58  75 SE14      29.83R
INTNL FALLS    SUNNY     67  53  61 NE3       29.85R
DULUTH         CLOUDY    58  51  78 E8        29.88S
RED WING       LGT RAIN  63  61  94 CALM      29.83F
REDWOOD FALLS  CLOUDY    67  56  67 SE15      29.77R
MANKATO        CLOUDY    66  55  68 S12       29.80R
WORTHINGTON    CLOUDY    63  57  81 SE7       29.80R
FAIRMONT       CLOUDY    63  57  82 SE13      29.79F
$$

...SOUTHWEST WISCONSIN...


CITY           SKY/WX    TMP DP  RH WIND       PRES   REMARKS
LA CROSSE      CLOUDY    68  63  84 NW6       29.81F
PRAIRIE DU CHI MOSUNNY   71  63  74 SE12G18   29.81F
BOSCOBEL       CLOUDY    73  63  70 S7        29.83F
LONE ROCK      CLOUDY    72  62  71 SE8       29.86R
PLATTEVILLE    CLOUDY    67  64  87 S9        29.86S
FORT MC COY    CLOUDY    67  63  86 E3        29.83F
CAMP DOUGLAS   PTSUNNY   68  68 100 SE10      29.85R
MAUSTON-NEW LI CLOUDY    68  65  88 SE7       29.85S
VIROQUA        PTSUNNY   69  63  83 SE14      29.83S
WIS DELLS      CLOUDY    70  62  75 E7        29.87S
$$

...ELSEWHERE IN WISCONSIN...


CITY           SKY/WX    TMP DP  RH WIND       PRES   REMARKS
MILWAUKEE      CLOUDY    75  68  78 S7        29.88S
MADISON        PTSUNNY   74  60  61 S13       29.86R
GREEN BAY      CLOUDY    75  65  70 NE9       29.86F
EAU CLAIRE     CLOUDY    66  61  84 N7        29.82F
BLACK RVR FLS  FAIR      67  63  86 CALM      29.83F
MEDFORD        CLOUDY    64  59  83 NE5       29.86F
WAUSAU         CLOUDY    68  59  73 E3        29.85F
WIS RAPIDS     LGT RAIN  66  60  81 E5        29.88R
MARSHFIELD     CLOUDY    66  59  78 E5        29.85F
RICE LAKE      CLOUDY    64  58  81 CALM      29.87F
$$

...NORTHEAST IOWA...


CITY           SKY/WX    TMP DP  RH WIND       PRES   REMARKS
WATERLOO       CLOUDY    68  60  75 E13       29.78S
DUBUQUE        CLOUDY    67  62  84 S14       29.84F
DECORAH        PTSUNNY   68  64  88 E8        29.81S
MASON CITY     LGT RAIN  63  61  93 E5        29.81F
CHARLES CITY   CLOUDY    66  64  94 E7        29.81S
OELWEIN        CLOUDY    68  64  88 SE14      29.81S
$$

...ELSEWHERE IN IOWA...


CITY           SKY/WX    TMP DP  RH WIND       PRES   REMARKS
DES MOINES     LGT RAIN  64  61  90 E7        29.75F FOG
IOWA CITY      CLOUDY    71  66  84 S9        29.79F
FORT DODGE     CLOUDY    64  57  77 E9        29.78F
MARSHALLTOWN   CLOUDY    64  62  93 SE10      29.78R FOG
CEDAR RAPIDS   CLOUDY    68  66  93 SE10      29.79S
$$

...NORTHERN ILLINOIS...


CITY           SKY/WX    TMP DP  RH WIND       PRES   REMARKS
CHICAGO-OHARE  CLOUDY    70  66  87 S8        29.89F
CHICAGO-MIDWAY CLOUDY    76  64  66 S10       29.90F
MOLINE         CLOUDY    71  65  81 SE12      29.81F
ROCKFORD       CLOUDY    74  66  76 S8        29.90S
PEORIA         CLOUDY    72  64  76 S15       29.87S
$$

NOTE: "FAIR" INDICATES FEW OR NO CLOUDS BELOW 12,000 FEET WITH NO
SIGNIFICANT WEATHER AND/OR OBSTRUCTIONS TO VISIBILITY. WIND
SPEEDS ARE IN MILES-PER-HOUR.




USA.gov is the U.S. government's official web portal to all federal, state and local government web resources and services.